Location: Aselogna
(45.1667°N, 11.2500°E)
Time: 18:05:53
(UTC+00:00)

Daily predictions for brighter satellites

Satellite Brightness Start Highest point End
(mag) Time Altitude Azimuth Time Altitude Azimuth Time Altitude Azimuth
Cosmos 1378 Rocket 3.7 19:39:31 10° S 19:43:57 86° W 19:48:23 10° N
Cosmos 1674 4.3 19:40:25 10° SSW 19:43:59 38° WNW 19:47:34 10° N
Iridium 4 Rocket 4.3 19:38:20 10° N 19:44:10 67° W 19:49:58 10° S
Cosmos 1437 Rocket 3.6 19:42:10 10° NNW 19:45:59 51° W 19:49:51 10° S
ERBS 2.1 19:43:09 10° NW 19:46:08 72° SW 19:49:09 10° SE
PSLV R/B 3.9 19:43:20 10° NNE 19:47:28 85° E 19:51:37 10° SSW
SPOT 3 Rocket 4.1 19:42:51 10° SE 19:47:46 45° ENE 19:52:43 10° N
MOS 1 4.4 19:42:12 10° SSE 19:47:53 83° WSW 19:53:38 10° NNW
Cosmos 1674 Rocket 3.8 19:44:49 10° SSW 19:49:08 73° W 19:53:31 10° N
Meteor 1-16 Rocket 4.4 19:43:42 10° NNW 19:49:17 77° W 19:54:40 10° S
ATLAS 2AS CENTAUR R/B 4.1 19:43:05 10° NNW 19:49:23 31° NNE 19:55:20 10° E
Cosmos 2251 Rocket 3.7 19:44:41 10° NNW 19:50:02 68° ENE 19:55:22 10° SSE
Lacrosse 5 rocket 3.3 19:47:43 10° NNW 19:50:40 21° NNE 19:53:44 10° ENE
Cosmos 1656 Rocket 3.8 19:49:53 10° NNW 19:55:21 74° WSW 20:00:51 10° SSE
Cosmos 1238 Rocket 4.0 19:50:25 10° NNW 19:55:35 71° W 20:01:35 10° S
NOSS 3-4 (A) 4.0 19:48:39 10° NW 19:55:38 77° NE 20:03:34 10° SE
NOSS 3-4 (C) 4.0 19:48:45 10° NW 19:55:43 77° NE 20:03:37 10° SE
CZ-4B R/B 0.9 19:53:04 10° NNE 19:55:59 83° ESE 19:58:51 10° SSW
Cosmos 1553 Rocket 4.2 19:50:33 10° S 19:56:53 82° W 20:03:21 10° N
USA 306 4.4 19:54:39 10° WNW 19:58:06 25° SW 20:01:31 10° S
USA 234 4.3 19:54:35 10° E 20:00:39 42° NNE 20:06:43 10° NW
Atlas Centaur 2 3.4 20:05:17 10° SSW 20:06:05 10° S 20:06:53 10° S
Meteor 2-10 Rocket 3.4 20:03:04 10° N 20:08:10 75° ENE 20:13:09 10° SSE
Okean 1 Rocket 3.5 20:04:16 10° NNW 20:08:44 67° W 20:13:09 10° S
APEX 4.2 20:03:32 10° SSW 20:09:36 85° WNW 20:14:41 10° NNE
Cosmos 407 Rocket 3.7 20:04:55 10° NNW 20:10:04 58° ENE 20:14:39 13° SE
SL-14 R/B 3.8 20:06:20 10° SSW 20:10:08 59° W 20:14:00 10° N
S3M 4.0 20:04:21 10° S 20:10:35 82° E 20:16:46 10° N
USA 245 3.9 20:07:59 10° SSE 20:13:14 71° ENE 20:17:31 10° N
Cosmos 1455 Rocket 3.4 20:09:41 10° N 20:13:57 48° ENE 20:17:34 13° SSE
MetOp-B 4.2 20:10:33 10° SSE 20:15:54 81° WSW 20:21:18 10° NNW
SPOT 5 3.1 20:12:47 12° SE 20:16:43 48° ENE 20:20:57 10° N
Cosmos 2056 Rocket 4.2 20:12:32 10° SSE 20:17:23 36° ESE 20:22:18 10° NE
Meteor 2-5 Rocket 4.0 20:12:16 10° SSE 20:17:35 50° E 20:22:54 10° NNE
SPOT 1/Viking Rocket 4.2 20:15:29 10° S 20:20:29 53° W 20:25:32 10° NNW
Cosmos 1271 Rocket 4.2 20:20:23 10° NNE 20:23:45 25° ENE 20:26:12 15° ESE
Cosmos 1025 Rocket 3.2 20:20:19 11° SSE 20:24:18 50° E 20:28:27 10° NNE
Cosmos 1300 3.3 20:21:38 10° NNW 20:25:21 55° W 20:29:03 10° S
USA 32 4.4 20:24:15 13° SSE 20:28:43 47° E 20:33:43 10° NNE
ERS-1 Rocket 3.2 20:24:37 14° SSE 20:28:47 59° ENE 20:33:45 10° N
Cosmos 1607 4.3 20:24:38 10° S 20:30:28 43° ESE 20:36:17 10° NE
Cosmos 1140 Rocket 3.5 20:28:27 10° NNW 20:33:42 84° WSW 20:37:57 15° SSE
Cosmos 1953 4.2 20:32:41 10° NNW 20:36:03 27° W 20:39:23 10° SSW
Cosmos 1943 4.2 20:31:33 10° SW 20:37:03 50° WNW 20:42:34 10° NNE
CZ-2C R/B 3.8 20:37:32 10° NNE 20:42:06 57° E 20:45:45 15° S
Lacrosse 5 3.1 20:38:44 10° NW 20:43:29 37° NNE 20:48:12 10° E
Cosmos 1975 Rocket 3.2 20:40:31 10° SSW 20:44:58 80° W 20:49:28 10° N
Helios 1A Rocket 2.9 20:43:49 18° SSE 20:46:47 83° W 20:50:53 10° NNW
Ariane Rocket 4.4 20:43:32 10° SSW 20:48:10 34° W 20:52:49 10° NNW
Cosmos 1954 Rocket 4.3 20:45:34 10° NNW 20:50:49 59° ENE 20:54:15 21° SE
Resurs 01 Rocket 3.9 20:49:40 10° SW 20:52:50 19° W 20:56:02 10° NW
Lacrosse 4 Rocket 4.1 20:54:09 10° W 20:57:25 22° NW 21:00:40 10° N
Tiangong 1.5 20:56:34 10° WSW 20:59:34 39° S 21:00:12 35° SE
DELTA 2 R/B (1) 4.4 20:57:19 10° W 21:02:17 33° SSW 21:04:45 23° SSE
Cosmos 2228 4.3 20:58:58 10° NNE 21:02:35 27° ENE 21:04:23 20° ESE
Cosmos 1703 4.2 21:03:35 26° ESE 21:04:43 31° E 21:08:08 10° NNE
Cosmos 1544 Rocket 3.5 21:00:48 10° N 21:05:09 87° E 21:07:38 25° S
Terra 1.8 21:02:52 21° S 21:06:01 81° WSW 21:10:48 10° NNW
FALCON 9 DEB 4.2 21:03:33 10° W 21:06:42 44° NNW 21:09:51 10° NE
SL-8 R/B 4.3 21:04:17 10° W 21:09:03 60° N 21:13:50 10° ENE
USA 267 3.3 21:02:56 10° NE 21:09:30 87° NW 21:16:04 10° SW
Meteor 1-24 Rocket 3.9 21:06:22 10° SSW 21:11:37 67° WNW 21:16:59 10° N
Cosmos 1980 Rocket 4.5 21:08:33 10° N 21:11:43 15° NE 21:14:53 10° ENE
Cosmos 1455 2.1 21:09:06 10° N 21:12:54 82° W 21:14:42 30° S
Cosmos 1697 Rocket 4.3 21:12:10 10° N 21:16:49 26° NE 21:20:59 12° ESE
Cosmos 1371 Rocket 4.4 21:12:36 10° SSW 21:17:46 65° WNW 21:23:02 10° NNE
NOSS 2-1 (C) 4.3 21:13:51 10° NNW 21:18:17 60° NE 21:22:11 22° SE
Spot 2 Rocket 4.4 21:15:27 15° SSW 21:19:18 43° W 21:24:09 10° NNW
Cosmos 1452 Rocket 4.0 21:17:03 27° SSE 21:19:18 40° ESE 21:24:12 10° NE
RESURS DK-1 4.3 21:17:35 10° N 21:20:48 21° NE 21:23:13 14° E
ARIANE 5 R/B 2.9 21:23:37 27° S 21:26:01 66° WSW 21:30:29 10° NNW
NOSS 2-1 (D) 4.2 21:24:08 10° NW 21:28:40 71° NE 21:32:17 25° SE
Cosmos 2084 3.0 21:26:52 15° SW 21:30:00 87° SE 21:33:53 10° NE
Lacrosse 5 rocket 1.2 21:26:15 10° NW 21:30:09 82° NE 21:31:47 35° SE
ASTEX 1 4.0 21:25:30 10° NNE 21:30:14 41° E 21:32:06 30° SE
Cosmos 2074 Rocket 4.0 21:32:04 10° N 21:38:24 85° W 21:42:02 27° S
ATLAS 2AS CENTAUR R/B 2.7 21:34:01 10° NW 21:41:09 83° SW 21:44:52 29° SSE
USA 234 3.2 21:38:51 23° SE 21:43:17 88° SSW 21:49:53 10° NW
Cosmos 1656 3.7 21:38:49 10° NNW 21:44:18 73° ENE 21:46:54 32° SE
GP-B 3.9 21:40:21 10° NNE 21:44:31 38° E 21:45:39 32° ESE
Cosmos 1833 Rocket 3.2 21:44:37 32° SE 21:46:22 40° ESE 21:51:34 10° NE
Cosmos 2154 Rocket 4.0 21:51:28 10° N 21:57:45 86° W 22:00:52 32° S
Nadezhda 1 Rocket 3.9 21:54:38 29° S 21:57:59 87° E 22:04:06 10° N
Cosmos 1271 Rocket 4.5 21:56:16 10° NW 21:59:34 25° W 22:01:15 19° SW
Cosmos 2082 Rocket 3.5 21:59:43 22° ESE 22:00:33 22° E 22:04:51 10° NE
Cosmos 1741 Rocket 4.0 21:59:38 10° NNW 22:04:59 86° ENE 22:07:02 39° SSE
Cosmos 1610 Rocket 4.5 21:59:27 10° N 22:05:40 84° W 22:08:40 33° S
Cosmos 2344 4.5 22:01:18 10° NW 22:10:06 68° NE 22:20:43 15° SE
Cosmos 968 Rocket 4.2 22:21:17 10° N 22:26:15 44° ENE 22:28:29 28° ESE
Cosmos 1606 Rocket 3.8 22:22:11 10° NNW 22:26:27 60° W 22:27:26 46° SSW
COSMOS 2406 3.5 22:25:00 39° SSE 22:26:37 50° ESE 22:32:11 10° NE
H-2A R/B 3.5 22:22:32 10° NNE 22:26:42 60° ESE 22:27:16 54° SE
Lacrosse 5 1.9 22:21:41 10° NW 22:26:43 61° SW 22:27:56 47° S
Meteor 1-11 4.2 22:30:33 41° S 22:32:32 73° E 22:38:08 10° NNE
SL-8 Rocket 4.0 22:30:41 10° N 22:36:59 76° E 22:39:30 38° SSE
Cosmos 1850 Rocket 4.5 22:32:36 10° NNW 22:37:35 47° WSW 22:39:02 37° SSW
Cosmos 1328 4.5 22:37:12 39° WSW 22:38:11 48° WNW 22:42:07 10° N
Cosmos 2369 4.1 22:32:52 10° NNW 22:38:32 57° ENE 22:41:14 30° SE
Cosmos 2228 4.4 22:36:27 10° NNW 22:40:02 27° W 22:41:10 24° WSW
Cosmos 2218 Rocket 4.1 22:34:11 10° N 22:40:35 69° E 22:43:17 36° SSE
Cosmos 2341 Rocket 4.0 22:36:07 10° N 22:42:30 84° W 22:45:04 39° S
Cosmos 1408 2.3 22:43:33 83° NW 22:43:33 83° NW 22:46:56 10° N
SL-16 R/B 4.4 22:39:28 10° N 22:43:30 19° NE 22:47:30 10° E
Cosmos 1825 2.7 22:46:54 44° E 22:46:54 44° E 22:50:26 10° NNE
ALOS 2 2.5 22:46:37 58° S 22:47:26 81° WSW 22:51:51 10° NNW
Cosmos 2366 rocket 4.0 22:43:54 10° N 22:50:14 80° E 22:52:47 39° SSE
Cosmos 1900 4.5 22:46:36 10° NNW 22:51:48 76° NE 22:53:35 41° SE
SL-8 R/B 3.9 22:47:07 10° WNW 22:51:57 70° NNE 22:56:46 10° E
Cosmos 1726 Rocket 4.3 22:48:46 10° NNW 22:52:48 40° W 22:53:36 36° WSW
Cosmos 967 Rocket 4.4 22:51:24 32° SSW 22:54:40 87° SE 23:01:11 10° NE
Cosmos 1980 Rocket 2.4 22:51:08 10° NNW 22:56:52 69° ENE 22:59:14 35° SE
RESURS DK-1 2.9 22:55:04 10° NW 22:58:59 42° WSW 22:59:03 42° WSW
Cosmos 1697 Rocket 2.8 22:55:39 10° NNW 23:01:10 59° WSW 23:02:41 44° SSW
Cosmos 1812 Rocket 4.4 22:58:31 10° N 23:02:47 41° ENE 23:03:53 35° ESE
Cosmos 1892 3.0 23:06:34 51° W 23:06:52 52° WNW 23:10:32 10° N
ADEOS Rocket 3.4 23:05:35 37° S 23:08:35 70° WSW 23:16:05 10° NNW
Lacrosse 5 rocket 3.6 23:06:26 10° W 23:07:17 13° W 23:07:17 13° W
ERS-2 1.9 23:05:50 10° NNE 23:09:25 86° WNW 23:09:25 86° WNW
USA 276 3.2 23:10:14 40° NNW 23:10:17 40° NNW 23:13:04 10° ENE
In-Cosmos 22 Rocket 4.2 23:08:21 43° SSW 23:10:18 83° W 23:15:53 10° N
Cosmos 2084 Rocket 4.0 23:08:05 10° NNW 23:11:54 49° NE 23:13:11 35° E
Cosmos 1602 Rocket 3.6 23:15:24 55° SE 23:15:57 60° E 23:20:13 10° NNE
Cosmos 2058 Rocket 3.8 23:11:56 10° NNW 23:16:03 40° W 23:16:43 37° WSW
Cosmos 2181 Rocket 4.1 23:15:18 36° SSW 23:17:50 66° W 23:24:01 10° N
Cosmos 1302 Rocket 4.3 23:21:10 37° SW 23:23:07 62° WNW 23:28:17 10° NNE
Cosmos 2278 3.9 23:19:09 10° NNW 23:24:52 69° ENE 23:27:31 33° SE
Geosat FO 4.4 23:25:30 81° NNE 23:25:30 81° NNE 23:28:56 10° NNW
Cosmos 2322 Rocket 4.0 23:21:03 10° N 23:25:49 27° NE 23:30:35 10° ESE
USA 234 4.2 23:26:11 26° SW 23:26:50 26° SW 23:32:12 10° WNW
Cosmos 1833 Rocket 4.0 23:26:16 15° WSW 23:30:19 35° NW 23:35:27 10° NNE
ATLAS 2AS CENTAUR R/B 4.3 23:26:56 10° WNW 23:30:52 16° WSW 23:32:16 15° WSW
CZ-2D R/B 4.2 23:33:40 10° NE 23:36:32 15° E 23:38:50 11° ESE
Geosat 4.2 23:35:56 32° SE 23:38:13 68° ENE 23:43:14 10° NNW
Okean 1-7 Rocket 4.4 23:39:49 36° WSW 23:40:50 41° WNW 23:45:05 10° N
Cosmos 1626 Rocket 4.1 23:42:03 39° WSW 23:42:54 45° WNW 23:47:05 10° N
Cosmos 2082 Rocket 2.6 23:41:32 31° SW 23:44:10 60° WNW 23:49:50 10° NNE
Cosmos 1821 Rocket 4.0 23:42:11 10° N 23:48:30 77° W 23:50:56 40° S
ATLAS 5 CENTAUR R/B 1.7 23:51:04 44° ESE 23:51:04 44° ESE 23:54:43 10° NE
Cosmos 1869 4.4 23:47:27 10° NNW 23:50:53 31° W 23:50:55 31° W
Cosmos 1825 Rocket 3.6 23:53:55 54° SSE 23:54:42 67° E 23:59:00 10° NNE
